Regional Weather Roundup
Issued by NWS Upton, NY

Current Version | Previous Version | Graphics & Text | Print | Product List | Glossary Off
Versions: 1 2 3 4 5 6 7 8 9 10 11 12 13 14 15 16 17 18 19 20 21 22 23 24 25 26 27
000 ASUS41 KOKX 280209 RWROKX REGIONAL WEATHER ROUNDUP NATIONAL WEATHER SERVICE NEW YORK NY 1000 PM EDT TUE JUN 27 2017 NOTE: "FAIR" INDICATES FEW OR NO CLOUDS BELOW 12,000 FEET WITH NO SIGNIFICANT WEATHER AND/OR OBSTRUCTIONS TO VISIBILITY. NYZ071-072-176-178-NJZ106-104-280300- NEW YORK CITY METRO AREA CITY SKY/WX TMP DP RH WIND PRES REMARKS Central Park PTCLDY 71 47 42 VRB6 30.00R Bronx Bot Gard N/A 68 48 49 NW6 30.00R LaGuardia APRT MOCLDY 73 49 42 NW13G21 29.96R Kennedy INTL MOCLDY 73 48 41 NW8 29.98R Breezy Point N/A 66 N/A N/A W5 N/A Newark/Liberty PTCLDY 70 48 45 W6 29.97R Teterboro PTCLDY 69 50 50 NW10 29.96R $$ NYZ177-179-078>081-280300- LONG ISLAND NEW YORK CITY SKY/WX TMP DP RH WIND PRES REMARKS Jones Beach N/A 64 N/A N/A SW3 N/A Matinecock PT N/A N/A N/A N/A S1 N/A Farmingdale PTCLDY 68 61 77 SW6 29.97S MacArthur/ISP MOCLDY 68 56 65 CALM 29.97R Shirley PTCLDY 62 58 86 CALM 29.98R Mt Sinai Harb N/A N/A N/A N/A SW1 N/A Westhampton PTCLDY 59 54 83 CALM 29.99R East Hampton NOT AVBL Montauk N/A 68 60 75 SW5 29.98R $$ NYZ052-065-067-280300- HUDSON VALLEY CITY SKY/WX TMP DP RH WIND PRES REMARKS White Plains PTCLDY 66 50 56 NW6 29.98R Larchmont Harb N/A 68 N/A N/A NW5 N/A Croton O-T Hud N/A 66 N/A N/A N2 N/A Newburgh PTCLDY 63 52 67 NW6 29.99R Montgomery CLEAR 58 52 80 CALM 29.99R Poughkeepsie PTCLDY 59 53 80 CALM 29.98R Albany PTCLDY 56 51 84 CALM 29.97R $$ NJZ001-105-106-008-010-013-015-019>022-104-280300- NEW JERSEY CITY SKY/WX TMP DP RH WIND PRES REMARKS Newark/Liberty PTCLDY 70 48 45 W6 29.97R Teterboro PTCLDY 69 50 50 NW10 29.96R Caldwell PTCLDY 66 52 60 CALM 29.99R Somerville CLEAR 60 59 96 CALM 29.97R Linden FAIR 68 49 50 CALM 29.98R Perth Amboy N/A 70 N/A N/A W5 N/A Sussex CLEAR 58 54 86 W3 30.00R Andover N/A 58 55 90 CALM 30.00R Trenton PTCLDY 68 52 56 NW3 29.99R Millville PTCLDY 63 60 90 W3 30.00R Atlantic City PTCLDY 71 58 63 SW5 29.99R Wrightstown PTCLDY 67 52 58 CALM 29.97R Toms River CLEAR 66 53 63 NW3 30.00R Belmar CLEAR 68 57 68 N3 30.00R $$ PAZ047>061-062-071-280300- EASTERN PENNSYLVANIA CITY SKY/WX TMP DP RH WIND PRES REMARKS Philadelphia PTCLDY 73 47 39 NW9 30.01R Allentown CLEAR 66 46 48 NW7 30.01R Scranton CLOUDY 63 47 55 W7 30.03R $$ CTZ002-004>006-009-010-012-RIZ004-006-007-MAZ004-011-015-280300- SOUTHERN NEW ENGLAND IN CT CITY SKY/WX TMP DP RH WIND PRES REMARKS Bradley INTL PTCLDY 61 48 62 W6 29.98R Hartford CLEAR 60 56 86 CALM 29.97R Danbury NOT AVBL Wtrbury/Oxford CLEAR 59 46 63 CALM 29.99R Bridgeport PTCLDY 69 53 56 N5 29.97R Meriden CLEAR 57 55 93 CALM 29.98R New Haven PTCLDY 67 49 52 NW5 29.97R Chester FAIR 66 52 59 NW6 29.98R Groton MOCLDY 65 57 75 N7 29.96R Wilimantic PTCLDY 58 56 93 CALM 29.99R IN RI CITY SKY/WX TMP DP RH WIND PRES REMARKS Providence CLOUDY 64 52 64 NW6 29.97S Block Island MOCLDY 64 61 90 SW9 29.97R Westerly CLOUDY 66 61 84 CALM 29.96R IN MA CITY SKY/WX TMP DP RH WIND PRES REMARKS Boston LGT RAIN 61 55 81 SW6 29.95S Worcester CLEAR 54 51 90 W9 29.98R Westfield CLEAR 56 54 93 CALM 29.98R Provincetown MOCLDY 66 61 84 S8 29.96R Nantucket CLEAR 63 62 97 S7 29.97R $$ ANZ330-335-338-340-345-350-353-355-280300- COASTAL MARINE OBSERVATIONS STATION/POSITION TIME SKY/WX TEMP WIND PRES VSBY WAVE AIR SEA DIR/SP/G HT/PER (UTC) (F) (DEG/KT/KT) (MB) (MI) (FT/S) NY HARB ENTRANCE 0150 68 69 230/ 6/ 6 1014.9 1/ 8 20 S FIRE ISLAND 0150 70 70 220/ 8/ 10 1014.4 2/ 6 GREAT SOUTH BAY 0130 71 76 300/ 4/ 6 N/A 23 SSW MONTAUK P 0150 67 66 1015.1 2/ 4 15 E BARNEGAT LI 0130 66 N/A 2/ 3 HUDSON CANYON 0150 70 69 220/ 8/ 8 1014.7 2/ 7 KINGS POINT 0130 71 68 310/ 6/ 7 1014.5 EXECUTION ROCKS 0145 69 260/ 4/ 4 N/A CENTRAL LI SOUND 0130 70 250/ 12/ 14 N/A 2 EASTERN LI SOUND NOT AVBL ROBBINS REEF 0124 290/ 9/ 12 1015.2 $$ >>>>>>>>>>>>>>>>>>>>>>>>>>>> KEY <<<<<<<<<<<<<<<<<<<<<<<<<<< > < > SKY/WX - Sky Condition/Present Weather < > TMP - Temperature in Fahrenheit < > DP - Dew Point in Fahrenheit < > RH - Relative Humidity in Percent < > WIND - Direction (from) and Speed in MPH < > PRES - Mean Sea Level Pressure (inches of Hg) < > WCI - Wind Chill Index < > VSB - VISIBILITY IN MILES < > HX - HEAT INDEX < > TC - TEMPERATURE IN CELSIUS < > VRB - VARIABLE WIND DIRECTION < > < >>>>>>>>>>>>>>>>>>>>>>>>>>>> KEY <<<<<<<<<<<<<<<<<<<<<<<<<<<

USA.gov is the U.S. government's official web portal to all federal, state and local government web resources and services.